Showing default

SATORO-T2, 60477

Orbit data source: Space-Track

SATORO-T2, 60477 is a payload satellite owned by Satoro (SG) in SSO that was launched on Fri, 16 Aug 2024 UTC via an FALCON 9 launch vehicle from the Air Force Western Test Range (AFWTR). Payload-class satellites include a variety of spacecraft equipped with specific instruments for various scientific and technological missions. These include communications satellites like Starlink; space stations such as the ISS; scientific satellites like the Hubble; Earth observation satellites from companies like Planet Labs, Umbra, and HawkEye 360; GPS; miniature CubeSats for education and research; and military/defense satellites.

Loading next visibility...
Identifier
60477, 2024-149K
Orbit
SSO
Country
Flag of UnknownUnknown / SING
Related business
Manufacturer
Satoro
Mission
Operational Commercial Technology
Bus & Motor
CUBESAT 3U, Unknown motor
Mass
4 kg wet, 4 kg dry
Launch date (UTC)
2024-08-16 (1 year ago)
Launch vehicle
FALCON 9
Launch site
Air Force Western Test Range (AFWTR)
Object type
Payload
Rocket body
Debris
Shape & HBR
Box, 0.1 m
Radar Cross Section
0.035 m², Medium (>0.1 m² and < 1m²)

Expand to show TLE details & history
Last TLE update: 1 day ago

TLE from 1 day ago
0 SATORO-T2
1 60477U 24149K   25312.81304906  .00113121  00000-0  18648-2 0  9996
2 60477  97.3929  34.8437 0001341 249.3389 110.7720 15.51898758 68730
Epoch: 2025-11-08T19:30Z
TLE epoch observation values (Epoch: 2025-11-08T19:30:47.438Z)
Latitude
-0.00001°
Longitude
53.90876°
Altitude
414.639 km
Speed
7.662 km/s
True Right ascension
02h 19m 22s
True Declination
0° 00' 00"
Sunlit
Object was in full shadow at epoch
Visualization orbit readout
Latitude
Unknown
Longitude
Unknown
Altitude
Unknown
Speed
Unknown
Apparent Right ascension
Unknown
Apparent Declination
Unknown
Sunlit
N/A
Visualization observer readout
Local Sidereal Time
18:58:38
Azimuth
Unknown
Elevation
Unknown
Doppler factor
Unknown
Orbital elements
Apogee altitude
409.015 km
Perigee altitude
407.195 km
Semi-major axis
6,786.242 km
Eccentricity
0.00013
Inclination
97.3929°
RAAN
34.8437°
Arg. of periapsis
249.3389°
True anomaly
110.78637°
Mean anomaly
110.772°
Eccentric anomaly
110.77918°
Mean motion
3.88239 °/min
Orbital period
92.73 mins
BSTAR
0.0018648
Loading maneuver chart data...
Computing Atmospheric mass density...
Loading historical data...
Loading historical data...
Loading historical data...
Loading historical data...
Loading historical data...
Loading historical data...
Loading historical data...

Documentation

Showing up to 5 results
|